Powrót do katalogu

OPS 4682 DEB

AktywnyPO
NORAD 27545·DEBRIS·🇺🇸 United States

Wystrzelony Apr 3, 1965 z Vandenberg Space Force Base

Loading…

Następne Przeloty (najbliższe 24 godziny)

TLE

ŚwieżeSource: Space-Track

Epoka: Sep 12, 2026, 07:22 UTC

1 27545U 65027BH  26255.30703319  .00000911  00000-0  32064-2 0  9997
2 27545  90.2522   9.2902 0019292  15.2868  11.7827 12.95338581166532

Śledź OPS 4682 DEB w czasie rzeczywistym z AllMySat

Download on the App Store